Weather in Waskaganish

Canada     51°29′02″N   78°45′02″W
temp.,
°C
wind,
m/s
gust,
m/s
humid.,
%
clouds,
%
prec.,
mm/h
press.,
hPa
HPBL,
m
15 may, sat
sat1523:00+4wnw3792100 0.4 1019115
02:00+1wnw379451 0.4 1020200
05:00−1wnw389522 0.0 1022290
08:000nnw4790100 0.0 1024377
11:00+3nw458080 0.0 1025476
14:00+5wnw5567100 0.0 1024489
17:00+4nw456786 0.0 1025418
20:00+2nw357526 0.0 1025256
16 may, sun
sun1623:00−1nnw24915 0.0 1025131
02:00−2n119489 0.0 102510
05:00−1nw1185100 0.0 102538
08:00+2nnw117292 0.0 1026145
11:00+9ese114869 0.0 1025458
14:00+17wsw11405 0.0 10231012
17:00+18s244022 0.0 10201454
20:00+15ese3456100 0.0 101983
17 may, mon
mon1723:00+12se4106174 0.0 1017168
02:00+12sse5156767 0.0 1016413
05:00+12s51373100 0.0 1015342
08:00+14ssw51264100 0.0 1015826
11:00+11sw31094100 3.0 1015621
14:00+9wnw51096100 5.8 1017465
17:00+5nnw6117667 0.1 1021559
20:00+3n41165100 0.1 1024574
18 may, tue
tue1823:000nnw2977100 0.0 1026393
02:000nnw2680100 0.0 1027274
05:00−1n1185100 0.0 102713
08:00+2sse1262100 0.0 1028297
11:00+6sse3547100 0.0 1026509
14:00+6ese3760100 0.4 1023359
17:00+14se5741100 0.0 1020753
20:00+10ese71358100 0.1 1017320
19 may, wed
wed1923:00+9se512685 0.0 1016248
02:00+9sse35945 0.0 101570
05:00+11ssw311899 0.0 1016221
08:00+17sw412649 0.0 1017486
11:00+23wsw47444 0.0 1017841
14:00+26w47344 0.0 10161440
17:00+27w47314 0.0 10151802
20:00+22wnw22450 0.0 101420